This demonstration page uses our WeatherBlox Daily Observations layout. Learn more.

Left ArrowRight Arrow

Hourly Observations for September 1, 2019

Temp ( °F °C ) Dew Point ( °F °C ) Humidity (%) Winds ( mph kmh ) Pressure ( in mb ) Visibility ( mi km ) Precip ( " mm )
12:53 am 00:53 Cloudy with Light Rain 79 26.1 76 24.4 90 90 NE 8 13 29.96 1015 8 13 0.02 0.51
1:53 am 01:53 Cloudy 78 25.6 76 24.4 93 93 ENE 9 15 29.95 1014 10 16 0.02 0.51
2:37 am 02:37 Cloudy 78 25.6 76 24.4 93 93 E 6 9 29.94 1014 10 16 0.00 0.00
2:53 am 02:53 Cloudy 79 26.1 76 24.4 90 90 E 6 9 29.93 1014 10 16 0.00 0.00
3:53 am 03:53 Cloudy 79 26.1 75 23.9 88 88 ENE 7 11 29.93 1014 10 16 0.00 0.00
4:53 am 04:53 Cloudy 80 26.7 74 23.3 82 82 E 3 6 29.93 1014 10 16 0.00 0.00
5:53 am 05:53 Mostly Cloudy 79 26.1 73 22.8 82 82 E 3 6 29.94 1014 10 16 0.00 0.00
6:53 am 06:53 Mostly Cloudy 80 26.7 74 23.3 82 82 ESE 5 7 29.95 1014 10 16 0.00 0.00
7:46 am 07:46 Cloudy 81 27.2 75 23.9 82 82 SSE 5 7 29.96 1014 10 16 0.00 0.00
7:53 am 07:53 Cloudy 80 26.7 74 23.3 82 82 SSE 5 7 29.96 1015 10 16 0.00 0.00
8:53 am 08:53 Mostly Cloudy 83 28.3 74 23.3 74 74 Calm 29.97 1015 10 16 0.00 0.00
9:53 am 09:53 Partly Cloudy 84 28.9 74 23.3 72 72 SSW 10 17 29.95 1014 10 16 0.00 0.00
10:53 am 10:53 Partly Cloudy 86 30 76 24.4 72 72 SSW 12 19 29.93 1014 10 16 0.00 0.00
11:53 am 11:53 Partly Cloudy 86 30 76 24.4 72 72 WSW 10 17 29.92 1013 10 16 0.00 0.00
12:53 pm 12:53 Partly Cloudy 86 30 76 24.4 72 72 WSW 12 19 29.91 1013 10 16 0.00 0.00
1:53 pm 13:53 Mostly Sunny 86 30 75 23.9 70 70 SW 14 22 29.90 1013 10 16 0.00 0.00
2:53 pm 14:53 Mostly Cloudy 86 30 75 23.9 70 70 WSW 14 22 29.90 1012 10 16 0.00 0.00
3:53 pm 15:53 Mostly Cloudy 84 28.9 74 23.3 72 72 WSW 7 11 29.89 1012 10 16 0.00 0.00
4:53 pm 16:53 Sunny 84 28.9 75 23.9 74 74 W 6 9 29.88 1012 10 16 0.00 0.00
5:53 pm 17:53 Mostly Cloudy 83 28.3 75 23.9 77 77 W 10 17 29.90 1013 10 16 0.00 0.00
6:53 pm 18:53 Mostly Cloudy 83 28.3 76 24.4 79 79 W 16 26 29.91 1013 10 16 0.00 0.00
7:53 pm 19:53 Mostly Cloudy 82 27.8 75 23.9 79 79 W 17 28 29.93 1014 10 16 0.00 0.00
8:53 pm 20:53 Mostly Cloudy 80 26.7 74 23.3 82 82 NNE 6 9 29.95 1014 10 16 0.00 0.00
9:53 pm 21:53 Mostly Cloudy 81 27.2 73 22.8 77 77 SE 6 9 29.96 1014 10 16 0.00 0.00
10:53 pm 22:53 Mostly Cloudy 79 26.1 74 23.3 85 85 NNE 7 11 29.95 1014 10 16 0.00 0.00
11:53 pm 23:53 Clear 79 26 68 20 70 70 ENE 8 13 29.93 1013 10 16 0.00 0.00

Powered by AerisWeather